Powrót do katalogu

FENGYUN 1C DEB

AktywnySSO
NORAD 30527·DEBRIS·🇨🇳 China

Wystrzelony May 10, 1999 z Taiyuan Satellite Launch Center

Loading…

Następne Przeloty (najbliższe 24 godziny)

TLE

ŚwieżeSource: Space-Track

Epoka: Sep 14, 2026, 14:26 UTC

1 30527U 99025AJR 26257.60188630  .00000828  00000-0  11489-2 0  9999
2 30527 100.0436 300.3046 0408564 289.7350 226.9760 13.31557285950275

Śledź FENGYUN 1C DEB w czasie rzeczywistym z AllMySat

Download on the App Store